Back to catalog

DELTA 1 R/B

AliveLEO
NORAD 50·ROCKET BODY·🇺🇸 United States

Launched Aug 12, 1960 from Cape Canaveral Space Force Station

Loading…

Next Passes (next 24 hours)

TLE

FreshSource: Space-Track

Epoch: Sep 9, 2026, 17:21 UTC

1 00050U 60009B   26252.72349400 -.00000057  00000-0  25781-3 0  9995
2 00050  47.2299 259.3292 0114430 266.9930  91.7760 12.20169755948021

Track DELTA 1 R/B in real time with AllMySat

Download on the App Store